PST,Max TemperatureF,Mean TemperatureF,Min TemperatureF,Max Dew PointF,MeanDew PointF,Min DewpointF,Max Humidity, Mean Humidity, Min Humidity, Max Sea Level PressureIn, Mean Sea Level PressureIn, Min Sea Level PressureIn, Max VisibilityMiles, Mean VisibilityMiles, Min VisibilityMiles, Max Wind SpeedMPH, Mean Wind SpeedMPH, Max Gust SpeedMPH,PrecipitationIn, CloudCover, Events, WindDirDegrees
2013-11-1,59,47,35,43,38,34,100,80,51,30.29,30.19,29.98,10,10,4,16,3,,0.00,0,,188
2013-11-2,48,40,32,41,32,23,93,68,43,30.07,29.95,29.79,10,10,7,22,10,31,0.00,1,Rain-Thunderstorm,250
2013-11-3,41,34,26,28,26,19,93,69,42,30.09,30.06,30.01,10,10,10,16,6,24,0.00,2,,264
2013-11-4,48,42,35,32,28,27,75,65,43,30.17,30.11,30.06,10,10,9,14,5,20,0.00,5,Rain,245
2013-11-5,51,44,37,41,37,30,93,75,62,30.25,30.16,30.11,10,10,7,17,8,24,0.00,5,Rain,209
2013-11-6,57,46,35,45,41,36,100,82,59,30.31,30.26,30.17,10,10,4,14,4,20,0.00,2,,174
2013-11-7,55,44,32,45,36,27,93,72,51,30.16,30.03,29.92,10,10,2,30,7,43,0.13,2,Rain-Thunderstorm,212
2013-11-8,44,38,32,32,29,27,87,70,49,30.18,30.13,30.11,10,10,10,18,5,24,0.00,1,,210
2013-11-9,50,38,26,36,30,25,93,74,43,30.12,30.09,30.06,10,10,9,14,3,,0.00,0,,189
2013-11-10,64,48,32,39,34,28,100,71,26,30.19,30.12,30.09,10,10,8,15,3,18,0.00,0,,198
2013-11-11,39,36,32,37,35,28,100,92,87,30.29,30.24,30.19,10,7,0,6,1,,0.00,7,Fog,284
2013-11-12,59,47,35,45,38,34,100,79,47,30.41,30.31,30.22,10,9,4,18,3,26,0.00,2,Rain,193
2013-11-13,55,42,30,39,31,25,100,73,31,30.46,30.39,30.27,10,9,5,7,2,,0.00,0,,199
2013-11-14,46,35,24,28,25,21,93,71,43,30.25,30.10,30.04,10,9,4,14,4,16,0.00,0,,288
2013-11-15,42,33,24,27,25,23,93,69,46,30.03,29.84,29.57,10,10,6,23,7,31,0.00,2,,216
2013-11-16,46,40,35,30,27,21,70,59,39,29.83,29.64,29.49,10,10,6,21,11,30,0.00,4,,241
2013-11-17,46,39,32,30,28,27,80,64,50,30.01,29.95,29.83,10,10,10,22,13,28,0.00,1,,215
2013-11-18,50,42,35,36,30,27,76,60,43,30.00,29.91,29.81,10,10,10,22,9,30,0.00,0,,215
2013-11-19,50,44,39,41,37,36,87,75,62,29.85,29.81,29.79,10,10,6,25,14,33,0.00,1,Rain,210
2013-11-20,42,30,17,39,17,-2,100,62,36,30.33,30.11,29.85,10,10,5,14,8,20,0.00,3,Rain,333
2013-11-21,32,18,5,3,0,-2,72,45,23,30.60,30.49,30.34,10,10,10,8,4,,0.00,0,,318
2013-11-22,33,19,5,10,6,0,85,59,32,30.62,30.57,30.53,10,10,10,8,3,,0.00,0,,274
2013-11-23,37,22,8,14,10,5,85,65,36,30.53,30.40,30.27,10,10,4,7,1,,0.00,0,,213
2013-11-24,57,34,10,18,13,7,92,58,17,30.31,30.25,30.19,10,10,9,7,2,,0.00,0,,155
2013-11-25,51,33,15,19,16,10,86,60,24,30.37,30.33,30.30,10,10,8,8,1,,0.00,0,,271
2013-11-26,50,34,17,21,18,16,93,62,28,30.31,30.21,30.14,10,10,7,7,0,,0.00,0,,201
2013-11-27,41,32,23,23,21,18,86,68,49,30.14,30.08,30.03,10,10,7,7,1,,0.00,0,,284
2013-11-28,53,34,15,25,21,12,93,71,33,30.20,30.13,30.08,10,10,10,9,1,,0.00,0,,184
2013-11-29,55,39,23,27,23,18,86,56,29,30.31,30.24,30.20,10,10,9,9,4,,0.00,1,,172
2013-11-30,55,44,32,36,33,25,87,68,44,30.37,30.31,30.25,10,10,7,17,3,24,0.00,3,Rain,198